TimeEST,TemperatureF,Dew PointF,Humidity,Sea Level PressureIn,VisibilityMPH,Wind Direction,Wind SpeedMPH,Gust SpeedMPH,PrecipitationIn,Events,Conditions,WindDirDegrees,DateUTC
12:15 AM,31.5,30.7,97,30.39,7.0,Calm,Calm,-,N/A,,Clear,0,2013-11-04 05:15:00
12:35 AM,31.6,31.1,98,30.39,7.0,Calm,Calm,-,N/A,,Clear,0,2013-11-04 05:35:00
12:55 AM,31.5,30.7,97,30.40,7.0,Calm,Calm,-,N/A,,Clear,0,2013-11-04 05:55:00
1:15 AM,31.3,30.6,97,30.41,10.0,Calm,Calm,-,N/A,,Clear,0,2013-11-04 06:15:00
1:55 AM,31.8,31.1,97,30.44,10.0,Calm,Calm,-,N/A,,Clear,0,2013-11-04 06:55:00
2:15 AM,30.7,30.2,98,30.44,7.0,Calm,Calm,-,N/A,,Clear,0,2013-11-04 07:15:00
2:35 AM,30.2,29.7,98,30.44,7.0,Calm,Calm,-,N/A,,Clear,0,2013-11-04 07:35:00
2:55 AM,29.7,29.1,98,30.45,7.0,Calm,Calm,-,N/A,,Clear,0,2013-11-04 07:55:00
3:15 AM,30.2,29.8,99,30.46,7.0,Calm,Calm,-,N/A,,Clear,0,2013-11-04 08:15:00
3:35 AM,29.7,29.3,99,30.46,7.0,Calm,Calm,-,N/A,,Clear,0,2013-11-04 08:35:00
3:55 AM,28.8,28.2,98,30.45,7.0,Calm,Calm,-,N/A,,Clear,0,2013-11-04 08:55:00
4:15 AM,29.5,29.1,99,30.46,10.0,Calm,Calm,-,N/A,,Clear,0,2013-11-04 09:15:00
4:35 AM,28.4,28.0,99,30.46,10.0,Calm,Calm,-,N/A,,Clear,0,2013-11-04 09:35:00
4:55 AM,28.2,27.5,97,30.46,10.0,Calm,Calm,-,N/A,,Clear,0,2013-11-04 09:55:00
5:15 AM,28.2,27.5,97,30.47,10.0,Calm,Calm,-,N/A,,Clear,0,2013-11-04 10:15:00
5:35 AM,27.7,27.3,99,30.47,10.0,Calm,Calm,-,N/A,,Clear,0,2013-11-04 10:35:00
5:55 AM,27.9,27.3,98,30.49,10.0,Calm,Calm,-,N/A,,Clear,0,2013-11-04 10:55:00
6:15 AM,27.7,27.1,98,30.49,10.0,Calm,Calm,-,N/A,,Clear,0,2013-11-04 11:15:00
6:35 AM,27.7,27.1,98,30.50,10.0,Calm,Calm,-,N/A,,Clear,0,2013-11-04 11:35:00
6:55 AM,27.9,27.3,98,30.50,10.0,Calm,Calm,-,N/A,,Clear,0,2013-11-04 11:55:00
7:15 AM,30.9,30.0,96,30.52,10.0,North,3.5,-,N/A,,Clear,10,2013-11-04 12:15:00
7:35 AM,34.0,30.0,85,30.53,10.0,NNE,4.6,-,N/A,,Clear,20,2013-11-04 12:35:00
7:55 AM,36.7,31.1,80,30.55,10.0,NNE,4.6,-,N/A,,Clear,30,2013-11-04 12:55:00
8:15 AM,38.7,31.1,74,30.55,10.0,NNE,5.8,-,N/A,,Clear,30,2013-11-04 13:15:00
8:35 AM,40.1,31.1,70,30.56,10.0,NE,8.1,-,N/A,,Clear,40,2013-11-04 13:35:00
8:55 AM,41.4,31.5,68,30.57,10.0,NE,6.9,-,N/A,,Clear,50,2013-11-04 13:55:00
9:15 AM,42.3,30.9,64,30.56,10.0,NE,8.1,-,N/A,,Clear,50,2013-11-04 14:15:00
9:35 AM,42.6,31.5,65,30.58,10.0,NE,3.5,-,N/A,,Clear,50,2013-11-04 14:35:00
9:55 AM,43.5,31.3,62,30.58,10.0,ENE,3.5,-,N/A,,Clear,70,2013-11-04 14:55:00
10:15 AM,43.9,31.1,61,30.57,10.0,NNE,6.9,-,N/A,,Clear,30,2013-11-04 15:15:00
10:35 AM,45.7,31.5,58,30.57,10.0,ENE,5.8,-,N/A,,Clear,70,2013-11-04 15:35:00
10:55 AM,46.6,31.5,56,30.58,10.0,NNE,4.6,-,N/A,,Clear,30,2013-11-04 15:55:00
11:15 AM,47.5,30.7,52,30.57,10.0,ENE,6.9,-,N/A,,Clear,70,2013-11-04 16:15:00
11:35 AM,49.1,30.9,50,30.56,10.0,NE,4.6,-,N/A,,Clear,50,2013-11-04 16:35:00
11:55 AM,49.1,30.6,49,30.56,10.0,East,5.8,-,N/A,,Clear,80,2013-11-04 16:55:00
12:15 PM,50.9,30.2,45,30.54,10.0,ENE,3.5,-,N/A,,Clear,60,2013-11-04 17:15:00
12:35 PM,49.8,30.2,47,30.54,10.0,NNE,4.6,-,N/A,,Clear,30,2013-11-04 17:35:00
12:55 PM,50.9,29.8,44,30.53,10.0,NNE,4.6,-,N/A,,Clear,30,2013-11-04 17:55:00
1:15 PM,50.2,29.1,44,30.52,10.0,ESE,3.5,-,N/A,,Clear,110,2013-11-04 18:15:00
1:35 PM,51.1,29.1,43,30.52,10.0,ENE,3.5,-,N/A,,Clear,60,2013-11-04 18:35:00
1:55 PM,51.6,27.3,39,30.51,10.0,East,4.6,-,N/A,,Clear,80,2013-11-04 18:55:00
2:15 PM,52.0,28.4,40,30.52,10.0,ENE,5.8,-,N/A,,Clear,60,2013-11-04 19:15:00
2:35 PM,53.4,28.6,38,30.51,10.0,East,4.6,-,N/A,,Clear,80,2013-11-04 19:35:00
2:55 PM,53.1,28.8,39,30.52,10.0,Calm,Calm,-,N/A,,Clear,0,2013-11-04 19:55:00
3:15 PM,53.2,28.8,39,30.51,10.0,Calm,Calm,-,N/A,,Clear,0,2013-11-04 20:15:00
3:35 PM,53.1,28.6,39,30.50,10.0,Calm,Calm,-,N/A,,Clear,0,2013-11-04 20:35:00
3:55 PM,52.7,29.3,41,30.51,10.0,Calm,Calm,-,N/A,,Clear,0,2013-11-04 20:55:00
4:15 PM,52.3,29.5,42,30.49,10.0,Calm,Calm,-,N/A,,Clear,0,2013-11-04 21:15:00
4:35 PM,52.3,29.3,41,30.51,10.0,Calm,Calm,-,N/A,,Clear,0,2013-11-04 21:35:00
4:55 PM,50.5,30.0,45,30.51,10.0,Calm,Calm,-,N/A,,Clear,0,2013-11-04 21:55:00
5:15 PM,45.5,32.7,61,30.51,10.0,Calm,Calm,-,N/A,,Clear,0,2013-11-04 22:15:00
5:35 PM,42.8,34.2,72,30.51,10.0,Calm,Calm,-,N/A,,Clear,0,2013-11-04 22:35:00
5:55 PM,41.7,35.2,78,30.51,10.0,Calm,Calm,-,N/A,,Clear,0,2013-11-04 22:55:00
6:15 PM,40.5,34.7,80,30.51,10.0,Calm,Calm,-,N/A,,Clear,0,2013-11-04 23:15:00
6:35 PM,39.7,35.2,84,30.52,10.0,Calm,Calm,-,N/A,,Clear,0,2013-11-04 23:35:00
6:55 PM,39.9,35.2,83,30.53,10.0,Calm,Calm,-,N/A,,Clear,0,2013-11-04 23:55:00
7:15 PM,38.3,34.3,86,30.53,10.0,Calm,Calm,-,N/A,,Clear,0,2013-11-05 00:15:00
7:35 PM,36.9,33.8,89,30.53,10.0,Calm,Calm,-,N/A,,Clear,0,2013-11-05 00:35:00
7:55 PM,35.6,32.7,89,30.54,10.0,Calm,Calm,-,N/A,,Clear,0,2013-11-05 00:55:00
8:15 PM,35.2,32.5,90,30.55,10.0,Calm,Calm,-,N/A,,Clear,0,2013-11-05 01:15:00
8:35 PM,34.5,32.2,91,30.55,10.0,Calm,Calm,-,N/A,,Clear,0,2013-11-05 01:35:00
8:55 PM,34.3,32.2,92,30.56,10.0,Calm,Calm,-,N/A,,Clear,0,2013-11-05 01:55:00
9:15 PM,34.9,32.0,89,30.57,10.0,Calm,Calm,-,N/A,,Clear,0,2013-11-05 02:15:00
9:35 PM,33.4,31.3,92,30.56,10.0,Calm,Calm,-,N/A,,Clear,0,2013-11-05 02:35:00
9:55 PM,32.4,30.7,94,30.56,10.0,Calm,Calm,-,N/A,,Clear,0,2013-11-05 02:55:00
10:15 PM,32.7,30.9,93,30.55,10.0,Calm,Calm,-,N/A,,Clear,0,2013-11-05 03:15:00
10:35 PM,34.7,31.1,87,30.56,10.0,North,3.5,-,N/A,,Clear,10,2013-11-05 03:35:00
10:55 PM,34.7,31.1,87,30.56,10.0,Calm,Calm,-,N/A,,Clear,0,2013-11-05 03:55:00
11:15 PM,35.6,32.0,87,30.55,10.0,Calm,Calm,-,N/A,,Clear,0,2013-11-05 04:15:00
11:35 PM,34.0,31.5,90,30.55,10.0,Calm,Calm,-,N/A,,Clear,0,2013-11-05 04:35:00
11:55 PM,33.3,31.1,92,30.56,10.0,Calm,Calm,-,N/A,,Clear,0,2013-11-05 04:55:00